Weather in Novyy Beltir

Russia / Altai Republic     49°55′47″N   88°36′09″E
temp.,
°C
wind,
m/s
gust,
m/s
humid.,
%
clouds,
%
prec.,
mm/h
press.,
hPa
HPBL,
m
6 may, thu
thu601:00+5ene1154100 0.0 101714
04:00+5e1153100 0.0 101510
07:00+6ne1149100 0.0 101522
10:00+10ese1232100 0.0 1013476
13:00+14se0219100 0.0 10111043
16:00+17w41014100 0.0 10093158
19:00+12wsw5532100 0.0 1013655
22:00+8wnw114628 0.0 101410
7 may, fri
fri701:00+7wnw114650 0.0 101410
04:00+5nw114875 0.0 101410
07:00+7w1143100 0.0 101511
10:00+11ese1132100 0.0 1013428
13:00+16se0321100 0.0 10091524
16:00+18wsw8825100 0.0 10072471
19:00+14nw5643100 0.0 10091300
22:00+10wnw3559100 0.0 1012268
8 may, sat
sat801:00+8nnw4573100 0.3 1014370
04:00+8nw246933 0.4 1015640
07:00+8nnw34568 0.4 10161130
10:00+9nnw344065 0.0 10161358
13:00+13nnw462083 0.0 10142342
16:00+14nnw57205 0.0 10132558
19:00+12nnw57183 0.0 10142253
22:00+9nnw33315 0.0 101640
9 may, sun
sun901:00+6nnw22375 0.0 101723
04:00+4nw33400 0.0 101725
07:00+5nw23370 0.0 1018114
10:00+10wnw24175 0.0 10151218
13:00+14nw581048 0.0 10132769
16:00+14nnw8911100 0.0 10112797
19:00+12nnw6813100 0.0 10121577
22:00+8nnw33265 0.0 101436
10 may, mon
mon1001:00+6nnw22312 0.0 101410
04:00+4e11353 0.0 101210
07:00+6e1132100 0.0 101221
10:00+10se1123100 0.0 1010539
13:00+13ne131712 0.0 10071561
16:00+17sw361656 0.0 10033130
19:00+15wsw982625 0.0 10022305
22:00+12nw353729 0.1 1002399